Temp
77 88 88 82 67 69 64 68 78 71 71 74 73 75 74 67 67 61 67 69 71 71 72 69 68 69 69 69 69 70 70 70 71 70 70 70 70 70 70 70 70 71 72 73 73 73 72 71 71
83 85 84 79 64 57 65 76 70 75 73 73 71 71 71 66 66 62 64 68 71 72 73 70 67 67 68 68 68 69 69 69 69 69 69 69 69 69 69 69 69 70 71 71 71 71 70 70 70
81 84 76 69 64 59 60 71 76 72 72 72 68 70 69 62 66 66 69 69 71 71 72 68 66 67 67 67 67 67 67 67 67 68 67 67 67 67 68 68 68 68 69 69 69 69 69 68 68
82 78 75 64 62 70 71 74 75 69 69 72 73 66 64 66 66 69 69 70 70 70 70 66 65 65 65 66 66 66 66 66 66 65 65 65 65 65 65 66 66 67 67 67 67 67 67 67 68
80 76 62 60 64 70 74 75 74 70 72 71 71 67 62 62 68 67 67 69 68 69 69 66 62 63 63 64 64 64 63 63 63 63 63 63 63 63 64 64 64 65 65 65 65 65 66 67 67
70 73 57 55 61 71 73 75 75 74 74 71 68 67 62 65 65 66 68 68 69 67 66 64 59 60 60 61 61 62 61 61 61 60 60 60 61 61 62 62 63 63 63 63 63 64 65 66 65
67 67 59 60 61 65 68 74 72 73 72 70 73 66 61 61 66 66 67 69 69 67 66 66 64 58 57 57 58 58 58 58 58 57 57 57 57 58 59 59 61 62 62 62 62 64 64 64 63
71 69 61 64 61 63 71 70 69 72 70 67 71 66 62 63 65 66 66 66 67 66 66 65 64 64 63 59 54 55 55 55 55 54 54 55 57 57 57 58 58 60 61 61 62 62 62 62 61
73 62 58 60 60 63 66 66 65 65 65 65 64 64 64 66 63 62 62 63 64 64 65 65 64 63 63 61 56 54 53 53 55 56 55 59 61 60 59 53 56 58 60 60 60 60 61 60 59
66 60 61 66 66 62 63 64 67 62 64 62 59 59 65 61 60 59 60 60 61 61 63 64 64 63 62 62 60 59 58 57 56 57 57 60 59 57 58 53 54 55 58 59 61 62 62 64 65
66 59 66 64 63 62 62 62 66 62 63 67 62 58 59 59 59 60 62 63 63 63 62 63 61 61 61 58 59 59 57 57 58 57 58 58 59 60 60 60 61 61 59 63 62 62 62 62 62
59 66 65 61 57 53 56 63 60 62 67 59 65 63 58 58 59 61 62 62 62 61 60 61 61 60 59 61 61 60 59 59 58 56 57 58 58 57 59 60 60 60 62 61 60 60 60 60 60
59 66 61 60 57 57 55 52 56 61 67 58 62 60 58 59 60 63 64 63 61 59 59 59 60 59 59 59 59 59 58 58 57 57 55 58 57 56 58 58 59 60 61 61 60 60 59 58 59
61 60 59 58 58 57 54 57 54 59 61 57 59 58 59 59 61 62 61 59 59 59 57 58 58 59 59 58 57 57 57 56 56 55 54 55 56 56 57 57 57 58 59 59 59 59 58 57 57
59 55 57 57 55 55 56 52 53 62 56 56 55 57 58 59 60 60 60 58 59 58 57 56 56 57 56 56 56 56 55 56 55 54 53 53 54 55 56 56 56 57 58 58 58 57 57 56 56
54 54 50 57 52 55 54 50 61 66 56 57 57 58 57 58 58 60 60 60 59 58 55 55 55 55 55 55 55 55 55 55 55 54 53 52 52 55 55 55 55 57 57 57 57 56 55 55 54
55 49 52 54 54 54 51 52 61 55 56 58 59 59 56 57 58 58 60 59 58 57 55 53 53 53 53 53 54 53 53 54 54 54 53 52 51 53 54 54 54 56 56 56 56 55 54 52 52
50 50 52 52 53 49 50 49 58 52 53 55 60 58 57 55 55 57 59 58 57 56 55 53 52 52 51 52 52 52 52 53 53 52 51 52 51 52 53 52 53 55 54 53 53 52 54 52 52
57 52 52 58 51 48 50 51 56 62 53 54 56 58 57 55 59 58 56 56 54 54 53 52 51 50 50 50 50 50 49 50 50 50 50 50 50 51 51 52 52 54 53 52 52 51 50 50 52
51 49 50 55 50 45 50 51 57 60 60 55 57 57 56 55 56 55 53 52 52 52 51 51 51 49 50 51 52 53 51 51 51 49 49 49 49 50 50 50 50 51 50 50 50 50 48 48 49
48 47 49 49 51 48 47 46 52 58 61 62 59 61 59 55 53 53 50 50 51 50 50 50 50 49 50 51 50 50 49 48 47 46 46 46 48 48 49 50 49 50 51 49 49 50 49 47 47
41 52 49 46 43 40 48 38 53 60 60 57 57 56 58 56 55 54 49 50 50 50 51 50 50 48 49 49 46 45 45 44 48 48 47 45 47 48 48 48 49 49 49 47 47 49 49 49 45
44 45 45 45 43 43 45 38 50 58 56 59 57 55 56 58 56 54 50 50 52 51 49 49 49 48 48 47 47 46 48 49 49 47 44 44 45 46 47 47 47 47 47 46 46 46 47 48 48
45 43 43 43 42 31 42 43 45 53 56 58 63 63 56 57 57 56 54 53 51 50 48 47 47 47 47 46 47 47 47 46 45 44 43 43 44 44 45 46 46 46 45 45 45 45 45 45 45
42 40 33 30 28 29 43 43 46 55 58 54 56 63 62 57 57 55 53 50 49 47 46 46 46 45 46 45 46 47 48 46 45 44 44 43 43 43 43 45 44 44 44 44 44 44 43 44 43
39 41 35 26 32 38 36 33 44 55 58 56 54 55 59 59 57 55 54 50 49 46 46 46 44 45 45 45 45 46 47 47 46 46 46 45 45 45 45 45 45 44 44 43 43 43 43 43 43
37 31 40 31 25 28 40 46 49 52 52 54 53 50 51 56 57 55 54 51 50 47 46 46 45 45 45 45 45 45 46 46 46 46 47 46 47 46 44 44 43 43 43 43 43 42 40 41 42
33 37 31 33 23 26 37 39 43 50 54 56 56 54 53 53 53 54 53 51 50 48 47 47 46 45 44 44 45 45 44 45 46 46 44 45 46 45 43 42 42 42 42 41 42 40 40 40 40
30 32 30 31 34 29 30 39 50 50 51 50 51 50 52 54 52 52 52 52 51 49 48 46 46 45 44 43 44 43 43 43 44 43 43 44 44 43 42 42 41 41 40 40 40 40 39 38 38
29 35 35 30 31 32 32 34 54 56 49 46 46 48 49 52 53 52 51 51 50 48 47 46 46 45 45 44 43 42 43 43 42 42 43 43 42 42 41 41 40 40 39 39 38 38 38 37 37
MSLP
1013.88 1012.73 1012.48 1011.93 1011.12 1008.98 1007.26 1006.52 1006.35 1007.45 1008.23 1008.97 1009.52 1009.32 1009.74 1011.60 1012.59 1015.36 1017.59 1018.03 1018.14 1018.35 1018.59 1019.02 1019.10 1019.11 1019.06 1019.15 1019.23 1019.11 1019.09 1019.05 1018.97 1019.04 1018.99 1018.96 1018.91 1018.92 1018.81 1018.71 1018.57 1018.33 1018.18 1018.01 1017.97 1017.88 1017.79 1017.82 1017.80
1013.37 1012.78 1012.22 1010.64 1009.65 1008.02 1006.57 1006.09 1006.83 1007.48 1009.09 1010.03 1010.65 1010.97 1011.20 1012.90 1014.75 1016.40 1017.57 1018.31 1018.28 1018.51 1018.59 1019.23 1019.39 1019.27 1019.25 1019.33 1019.43 1019.42 1019.59 1019.66 1019.52 1019.48 1019.47 1019.34 1019.20 1019.21 1019.10 1019.09 1018.97 1018.81 1018.63 1018.39 1018.36 1018.33 1018.24 1018.28 1018.10
1013.40 1012.78 1011.35 1010.16 1008.82 1007.42 1006.76 1006.88 1006.96 1008.63 1009.87 1010.44 1011.33 1012.23 1012.89 1014.24 1015.64 1016.55 1017.63 1018.33 1018.51 1018.68 1018.95 1019.66 1019.80 1019.67 1019.56 1019.56 1019.60 1019.83 1020.00 1020.01 1020.04 1019.92 1019.86 1019.77 1019.69 1019.58 1019.46 1019.37 1019.34 1019.19 1019.13 1019.02 1018.82 1018.68 1018.57 1018.63 1018.52
1012.45 1012.19 1011.44 1009.63 1007.95 1007.30 1006.72 1007.15 1007.84 1009.42 1010.41 1010.82 1011.22 1012.63 1014.82 1016.26 1016.20 1017.05 1018.04 1018.32 1018.54 1018.92 1019.28 1020.04 1020.20 1020.25 1020.13 1019.92 1019.89 1020.03 1020.28 1020.40 1020.52 1020.55 1020.45 1020.30 1020.23 1020.05 1019.93 1019.77 1019.64 1019.51 1019.40 1019.32 1019.21 1019.09 1019.02 1018.91 1018.56
1012.66 1011.40 1010.54 1009.22 1007.96 1007.32 1007.42 1007.79 1008.65 1009.28 1009.69 1010.60 1011.58 1012.64 1014.97 1016.76 1017.32 1017.87 1018.28 1018.53 1018.83 1019.15 1019.60 1020.23 1020.80 1020.73 1020.71 1020.56 1020.48 1020.48 1020.52 1020.73 1020.93 1021.02 1021.04 1020.89 1020.79 1020.55 1020.37 1020.25 1020.05 1019.88 1019.85 1019.78 1019.62 1019.41 1019.21 1019.09 1018.83
1011.86 1010.87 1010.24 1009.17 1008.21 1007.33 1007.80 1008.49 1008.80 1009.19 1009.95 1011.07 1011.86 1012.99 1015.19 1017.11 1017.55 1018.14 1018.34 1018.60 1018.92 1019.51 1020.13 1020.70 1021.35 1021.26 1021.17 1021.21 1021.14 1021.00 1021.07 1021.12 1021.28 1021.43 1021.36 1021.40 1021.41 1021.11 1020.76 1020.70 1020.52 1020.36 1020.25 1020.19 1019.97 1019.88 1019.47 1019.13 1019.39
1011.50 1010.32 1009.78 1009.15 1008.36 1007.96 1008.39 1009.16 1009.45 1009.50 1010.26 1011.21 1011.80 1012.75 1015.50 1016.95 1017.58 1018.35 1018.52 1018.77 1019.17 1019.67 1020.20 1020.56 1021.04 1021.70 1021.64 1021.73 1021.77 1021.68 1021.57 1021.63 1021.79 1021.97 1021.98 1021.94 1021.96 1021.66 1021.39 1021.26 1021.02 1020.69 1020.59 1020.55 1020.39 1020.00 1019.82 1019.87 1019.96
1011.57 1010.70 1009.72 1009.04 1008.82 1008.50 1009.04 1009.86 1010.77 1010.38 1011.14 1012.61 1012.78 1012.95 1014.52 1016.33 1017.72 1018.41 1018.80 1019.01 1019.39 1019.78 1020.13 1020.56 1021.04 1021.16 1021.29 1021.88 1022.22 1022.27 1022.25 1022.19 1022.16 1022.31 1022.36 1022.29 1022.12 1021.97 1022.02 1021.62 1021.45 1021.12 1020.93 1020.91 1020.88 1020.53 1020.51 1020.62 1020.67
1012.06 1011.09 1009.70 1009.45 1009.92 1010.03 1010.69 1010.78 1011.65 1012.31 1012.21 1012.95 1013.76 1014.29 1014.96 1016.19 1017.84 1018.41 1018.82 1019.02 1019.36 1019.83 1020.16 1020.58 1020.88 1021.17 1021.46 1021.77 1022.35 1022.37 1022.55 1022.54 1022.39 1022.33 1022.32 1021.82 1021.78 1021.88 1022.00 1022.38 1021.94 1021.65 1021.63 1021.46 1021.45 1021.19 1021.13 1020.98 1021.18
1011.60 1010.80 1010.09 1010.32 1010.62 1011.24 1011.55 1011.87 1011.72 1012.56 1012.53 1013.19 1014.25 1015.38 1015.74 1017.00 1017.64 1017.94 1018.28 1018.65 1019.08 1019.51 1020.12 1020.48 1020.86 1021.19 1021.51 1021.74 1022.01 1022.10 1022.30 1022.38 1022.67 1022.57 1022.43 1022.03 1022.17 1022.37 1022.23 1022.49 1022.54 1022.44 1022.24 1021.79 1021.62 1021.38 1021.20 1020.92 1021.12
1011.17 1010.63 1010.63 1011.31 1012.01 1012.75 1012.28 1012.35 1012.20 1012.65 1012.17 1012.27 1013.15 1014.87 1016.14 1016.83 1017.24 1017.49 1017.70 1018.17 1018.58 1019.34 1019.97 1020.54 1021.07 1021.31 1021.59 1021.93 1022.21 1022.30 1022.36 1022.48 1022.58 1022.70 1022.48 1022.44 1022.33 1022.15 1021.97 1022.00 1022.19 1022.23 1022.07 1021.75 1021.76 1021.69 1021.83 1021.76 1021.83
1011.33 1011.26 1011.44 1012.40 1012.96 1013.12 1013.77 1013.09 1012.68 1012.61 1012.11 1013.56 1013.42 1014.27 1015.93 1016.34 1016.67 1016.90 1017.17 1017.84 1018.51 1019.33 1019.92 1020.64 1021.10 1021.47 1021.76 1021.82 1021.83 1022.10 1022.19 1022.41 1022.54 1022.97 1022.73 1022.47 1022.43 1022.44 1022.30 1022.28 1022.28 1022.32 1022.22 1022.20 1022.24 1022.41 1022.51 1022.49 1022.67
1011.92 1011.25 1012.17 1012.68 1013.50 1013.68 1014.14 1013.37 1013.58 1012.41 1012.86 1014.17 1014.29 1014.83 1015.55 1016.05 1016.36 1016.66 1017.19 1017.91 1018.71 1019.32 1019.95 1020.65 1021.06 1021.37 1021.64 1021.83 1022.14 1022.32 1022.53 1022.66 1022.84 1022.99 1023.17 1022.75 1022.76 1022.72 1022.55 1022.62 1022.60 1022.49 1022.47 1022.55 1022.71 1022.83 1022.94 1023.13 1023.29
1012.02 1012.10 1012.42 1013.01 1013.28 1013.80 1013.82 1013.04 1013.91 1012.33 1013.02 1014.44 1014.38 1014.86 1015.39 1015.84 1016.05 1016.47 1017.15 1017.93 1018.67 1019.24 1019.90 1020.72 1021.01 1021.32 1021.56 1021.81 1022.32 1022.52 1022.72 1022.97 1023.05 1023.35 1023.41 1023.36 1023.15 1022.99 1022.89 1022.86 1022.96 1022.97 1023.01 1023.11 1023.20 1023.33 1023.48 1023.68 1023.98
1012.59 1012.55 1012.38 1012.79 1013.32 1013.70 1014.08 1012.83 1011.99 1012.49 1013.20 1013.91 1014.12 1014.23 1014.94 1015.44 1015.94 1016.21 1016.99 1017.70 1018.47 1019.22 1019.81 1020.59 1021.03 1021.39 1021.69 1022.14 1022.58 1022.70 1022.97 1023.07 1023.19 1023.35 1023.70 1023.63 1023.66 1023.41 1023.09 1023.16 1023.28 1023.46 1023.60 1023.65 1023.79 1023.96 1024.07 1024.30 1024.61
1012.46 1012.48 1011.76 1011.63 1012.97 1013.46 1013.75 1011.01 1010.74 1010.74 1012.58 1012.56 1013.09 1013.48 1014.24 1014.84 1015.50 1016.12 1016.81 1017.42 1018.19 1019.06 1019.79 1020.55 1021.16 1021.39 1021.72 1022.07 1022.52 1022.87 1023.02 1023.29 1023.41 1023.40 1023.74 1023.93 1024.03 1023.71 1023.44 1023.44 1023.65 1023.81 1023.85 1023.95 1024.11 1024.32 1024.50 1024.79 1025.13
1011.53 1010.69 1010.81 1011.64 1012.72 1012.97 1012.96 1010.93 1010.45 1011.82 1012.10 1011.95 1012.30 1012.96 1013.55 1014.25 1014.98 1015.78 1016.48 1017.13 1018.03 1018.72 1019.58 1020.43 1021.10 1021.37 1021.91 1022.19 1022.60 1023.02 1023.18 1023.31 1023.48 1023.69 1023.81 1024.08 1024.20 1024.04 1023.84 1023.91 1024.08 1023.98 1024.15 1024.37 1024.53 1024.87 1025.09 1025.39 1025.70
1009.80 1010.08 1010.56 1010.73 1012.01 1012.72 1012.14 1010.95 1010.65 1011.39 1011.64 1011.50 1011.41 1012.09 1012.81 1013.43 1014.02 1015.19 1016.08 1017.03 1017.80 1018.61 1019.38 1020.21 1020.86 1021.31 1021.95 1022.31 1022.62 1023.02 1023.44 1023.48 1023.59 1023.88 1024.12 1024.16 1024.31 1024.24 1024.14 1024.30 1024.39 1024.29 1024.54 1024.80 1025.11 1025.35 1025.57 1025.84 1026.03
1009.93 1010.24 1009.95 1010.16 1011.90 1012.38 1011.10 1010.15 1009.54 1009.53 1010.35 1010.45 1010.47 1010.88 1011.71 1012.40 1013.46 1014.70 1015.85 1016.79 1017.58 1018.36 1019.08 1019.83 1020.44 1021.15 1021.62 1021.94 1022.26 1022.69 1022.85 1023.48 1023.91 1024.13 1024.45 1024.40 1024.45 1024.42 1024.36 1024.45 1024.48 1024.42 1024.67 1025.17 1025.51 1025.84 1026.06 1026.36 1026.46
1011.07 1010.74 1010.35 1010.56 1011.69 1012.38 1010.73 1008.88 1008.35 1008.15 1007.89 1008.64 1009.08 1009.60 1010.38 1011.78 1012.74 1013.82 1015.16 1016.27 1017.08 1017.85 1018.66 1019.34 1019.96 1020.87 1021.19 1021.64 1021.77 1022.16 1022.94 1023.41 1023.78 1024.28 1024.60 1024.62 1024.74 1024.71 1024.61 1024.60 1024.67 1024.74 1025.09 1025.45 1025.71 1025.95 1026.26 1026.75 1026.98
1011.71 1011.23 1010.84 1010.88 1011.34 1011.57 1010.63 1007.50 1006.65 1005.63 1005.95 1006.57 1007.43 1008.05 1009.08 1010.10 1011.32 1012.61 1014.05 1015.17 1016.32 1017.21 1017.97 1018.65 1019.47 1020.39 1020.86 1021.34 1021.86 1022.48 1023.24 1023.74 1024.09 1024.41 1024.68 1024.88 1025.02 1025.05 1024.95 1024.87 1024.97 1024.94 1025.06 1025.41 1025.79 1026.10 1026.31 1026.54 1027.08
1012.36 1011.86 1011.93 1011.93 1012.00 1010.50 1010.36 1006.19 1004.89 1004.11 1004.14 1005.19 1005.98 1006.80 1007.25 1008.32 1009.85 1011.26 1012.82 1014.03 1015.13 1016.28 1017.44 1018.21 1019.07 1019.95 1020.60 1021.21 1021.84 1022.36 1022.62 1022.88 1023.27 1023.90 1024.34 1024.95 1025.19 1025.22 1025.20 1025.21 1025.26 1025.30 1025.47 1025.66 1025.94 1026.03 1026.29 1026.52 1026.97
1013.12 1013.15 1012.88 1012.61 1011.85 1010.92 1009.52 1008.50 1003.58 1003.39 1003.31 1003.68 1004.36 1005.17 1006.12 1007.11 1008.58 1009.81 1011.49 1012.84 1014.21 1015.63 1016.60 1017.69 1018.54 1019.48 1020.19 1020.96 1021.49 1022.09 1022.12 1022.36 1023.02 1023.79 1024.44 1024.90 1025.31 1025.47 1025.55 1025.60 1025.68 1025.76 1025.89 1026.12 1026.31 1026.55 1026.58 1026.68 1026.69
1014.58 1014.06 1013.71 1013.23 1012.40 1010.34 1008.69 1007.44 1001.55 1002.71 1002.34 1002.48 1002.88 1003.66 1005.06 1006.24 1007.60 1009.17 1010.84 1012.33 1013.58 1015.00 1016.21 1017.15 1018.00 1018.89 1019.74 1020.57 1021.19 1021.59 1021.81 1022.31 1023.02 1023.65 1024.22 1024.74 1025.17 1025.51 1025.74 1025.82 1025.93 1026.07 1026.40 1026.64 1026.82 1026.97 1027.02 1027.19 1027.37
1015.29 1014.50 1013.59 1012.98 1012.08 1008.92 1007.81 1006.32 1002.50 1002.87 1002.36 1002.83 1002.91 1003.26 1003.95 1005.61 1006.73 1008.10 1009.46 1010.96 1012.52 1013.88 1015.32 1016.45 1017.34 1018.22 1019.22 1020.09 1020.80 1021.20 1021.63 1022.24 1022.85 1023.32 1023.89 1024.31 1024.80 1025.28 1025.69 1025.85 1026.06 1026.28 1026.64 1026.97 1027.23 1027.31 1027.46 1027.60 1027.77
1015.18 1014.48 1013.50 1012.16 1010.78 1008.67 1008.55 1005.71 1003.07 1003.00 1002.66 1002.64 1003.35 1003.94 1004.22 1004.89 1006.02 1007.18 1008.45 1010.04 1011.43 1012.89 1014.38 1015.52 1016.54 1017.59 1018.58 1019.53 1020.26 1020.86 1021.40 1021.99 1022.56 1023.11 1023.61 1024.06 1024.48 1024.96 1025.64 1025.90 1026.13 1026.56 1026.85 1027.12 1027.22 1027.45 1027.70 1027.97 1028.21
1016.09 1015.60 1014.60 1013.53 1011.95 1010.47 1006.88 1004.48 1003.37 1002.86 1002.52 1002.88 1003.51 1004.48 1004.93 1005.23 1005.84 1007.01 1008.42 1009.76 1010.91 1012.18 1013.42 1014.62 1015.88 1016.96 1017.92 1018.84 1019.68 1020.35 1021.07 1021.72 1022.22 1022.91 1023.38 1023.88 1024.17 1024.76 1025.49 1025.93 1026.35 1026.71 1027.00 1027.18 1027.30 1027.42 1027.83 1028.21 1028.44
1017.05 1016.56 1015.48 1014.47 1012.48 1009.34 1005.89 1004.30 1002.94 1002.70 1002.32 1002.98 1003.66 1004.18 1004.64 1005.11 1005.61 1006.44 1007.68 1009.13 1010.43 1011.76 1013.02 1014.27 1015.26 1016.12 1017.16 1018.15 1018.94 1019.68 1020.60 1021.44 1021.98 1022.68 1023.19 1023.69 1024.16 1024.78 1025.36 1025.84 1026.26 1026.69 1026.95 1027.21 1027.28 1027.63 1028.08 1028.28 1028.58
1017.40 1016.48 1015.85 1014.67 1012.40 1009.64 1006.42 1003.86 1002.90 1002.90 1003.22 1003.83 1004.36 1004.79 1004.91 1005.03 1005.85 1006.55 1007.41 1008.73 1010.03 1011.34 1012.36 1013.50 1014.60 1015.56 1016.58 1017.49 1018.26 1019.09 1020.02 1020.90 1021.65 1022.30 1022.83 1023.40 1024.05 1024.79 1025.31 1025.74 1026.19 1026.61 1026.95 1027.22 1027.41 1027.72 1028.08 1028.36 1028.55
1016.92 1015.80 1015.18 1014.11 1012.03 1010.23 1007.96 1004.13 1003.07 1002.80 1003.76 1004.34 1004.65 1004.99 1005.25 1005.47 1006.03 1006.92 1007.60 1008.41 1009.44 1010.64 1011.70 1012.78 1013.84 1014.80 1015.80 1016.85 1017.80 1018.63 1019.53 1020.45 1021.27 1021.90 1022.56 1023.14 1023.87 1024.54 1025.10 1025.61 1026.08 1026.49 1026.86 1027.19 1027.54 1027.81 1028.13 1028.33 1028.51
Wind_Speed
15 8 4 5 8 8 15 18 4 4 5 3 3 2 2 7 5 2 6 6 7 7 7 9 9 11 12 13 12 13 12 11 11 12 13 12 11 12 12 11 11 10 11 12 13 13 13 13 13
9 7 5 7 9 11 12 18 9 9 7 6 5 2 3 6 6 10 10 7 7 7 6 9 9 11 12 12 11 13 12 10 11 11 11 11 12 12 12 12 11 11 11 12 12 12 11 12 12
8 6 7 5 12 14 12 6 9 8 8 7 4 3 3 6 7 11 11 10 9 7 9 9 10 10 11 11 12 12 11 11 10 10 11 11 11 11 11 11 11 11 11 10 10 10 12 12 9
4 4 6 10 16 14 18 5 5 10 4 4 1 5 5 6 8 7 11 10 9 8 11 10 11 10 11 12 12 12 11 11 11 11 11 11 10 11 11 10 10 10 10 10 10 9 9 9 9
3 5 9 14 18 18 2 5 6 10 8 9 8 6 4 5 8 13 11 9 10 9 10 11 10 10 10 11 11 11 11 11 10 10 10 11 10 10 11 10 11 10 10 10 10 10 9 9 12
6 4 8 14 19 15 1 4 9 10 6 6 6 8 6 10 12 10 10 10 9 9 9 10 10 10 11 10 10 11 11 11 10 10 10 10 11 11 12 12 11 11 10 9 9 9 8 13 16
10 9 14 18 16 9 9 4 10 10 8 9 2 7 7 12 11 10 9 9 8 9 7 6 8 10 11 11 10 10 11 11 11 11 10 11 10 11 11 12 11 11 11 10 9 8 17 17 17
6 8 16 14 12 14 3 6 8 8 7 4 3 6 5 16 14 11 10 10 9 8 7 7 6 5 6 8 10 10 10 10 10 10 8 5 7 8 11 11 12 12 12 11 10 14 16 17 17
3 8 12 15 10 8 3 9 2 4 2 3 3 4 3 20 16 13 11 10 9 7 7 6 6 6 6 7 6 9 8 7 6 5 6 3 6 7 9 11 12 13 11 12 12 12 11 15 19
9 11 16 7 9 8 7 8 1 4 8 8 6 3 12 18 17 15 14 12 12 11 9 7 6 6 5 4 5 5 5 6 6 5 5 5 6 5 5 6 8 7 8 12 13 12 7 8 8
8 14 9 2 1 3 5 7 5 8 11 12 12 13 17 18 17 15 14 13 12 11 8 7 5 5 5 4 4 3 3 3 4 6 5 5 3 3 4 3 3 3 4 6 8 9 8 11 9
9 11 6 1 3 4 5 3 5 10 9 7 3 18 18 19 18 16 15 13 13 11 10 8 7 6 5 4 3 4 3 3 3 4 4 3 3 4 4 3 4 4 5 7 8 7 10 11 12
13 13 5 4 4 6 5 5 9 8 6 0 3 14 18 17 17 15 13 12 12 12 10 9 8 7 6 5 4 4 4 3 4 4 5 4 4 4 4 4 4 5 6 6 7 7 8 10 11
4 6 6 4 6 4 7 4 4 9 12 8 11 14 16 18 17 15 15 14 13 12 11 9 9 7 7 6 5 4 4 4 4 4 5 5 4 4 4 5 5 6 6 6 7 7 7 8 9
2 8 6 10 6 4 5 9 17 17 13 14 14 15 16 17 17 17 15 15 14 11 11 11 10 9 8 8 5 4 4 4 4 5 6 6 5 5 5 5 6 6 6 8 7 8 8 8 8
5 5 11 3 9 4 10 20 14 17 16 17 17 17 17 19 19 17 16 15 14 12 12 11 9 10 9 8 6 5 4 4 4 5 5 6 5 4 5 5 6 5 5 6 6 6 7 7 7
10 13 15 8 13 6 13 16 3 5 12 16 16 16 16 18 19 18 17 15 15 14 14 13 11 11 10 8 6 5 6 4 4 4 5 6 6 5 5 6 5 6 5 6 6 6 6 7 7
14 16 14 14 7 10 12 21 13 10 12 15 16 16 18 19 21 19 18 16 15 14 14 13 11 12 10 8 7 5 5 4 4 4 4 5 5 5 6 6 6 6 6 6 6 7 6 6 6
19 15 16 12 5 7 17 21 20 16 14 16 18 18 19 20 18 18 17 16 16 15 16 15 14 13 10 8 8 6 6 5 4 5 5 5 5 5 6 6 6 6 6 7 8 7 7 5 5
16 19 20 18 6 5 16 24 21 21 21 22 21 20 20 18 19 19 18 17 17 17 17 16 15 14 11 8 7 6 6 5 5 5 5 5 5 5 5 6 6 7 7 7 6 5 4 3 1
17 18 18 17 5 13 15 24 24 22 24 22 22 20 19 21 22 21 21 21 19 18 17 17 16 15 12 11 7 6 5 6 5 6 5 4 5 5 5 6 6 6 6 6 5 3 2 2 1
15 9 12 15 7 9 4 16 16 14 10 15 20 20 22 23 23 22 22 22 20 19 17 16 15 15 13 12 10 12 8 8 7 6 6 5 5 5 5 6 6 6 5 6 5 3 3 1 3
1 3 5 10 12 14 16 10 6 11 16 18 20 21 22 22 22 23 23 22 21 19 17 16 16 15 14 13 11 10 8 6 6 6 9 7 5 5 5 5 6 6 5 5 5 5 4 1 1
3 2 2 4 6 9 15 16 17 15 14 16 14 18 20 21 21 20 20 20 19 17 16 15 17 16 14 14 13 13 10 8 8 8 7 6 5 5 5 5 5 6 6 5 5 5 5 4 4
7 6 4 5 6 9 1 13 18 11 18 9 11 11 12 17 19 20 22 21 20 21 19 17 18 17 16 15 13 13 11 10 10 10 7 8 6 5 7 6 6 5 6 5 5 5 5 4 4
13 7 6 8 9 10 3 10 7 8 14 10 9 9 8 13 17 20 22 21 21 22 21 19 19 17 17 16 14 12 11 7 7 9 6 6 6 6 8 6 6 7 7 6 5 4 4 4 4
7 8 3 6 2 6 10 16 9 14 15 12 10 5 9 10 14 18 18 19 20 21 21 20 19 17 17 16 13 12 10 9 8 9 7 6 6 7 9 8 7 7 6 6 5 4 5 4 3
3 3 4 4 5 9 9 8 11 12 13 6 8 6 9 11 13 15 17 18 17 18 18 19 18 18 17 16 14 12 12 11 9 8 8 8 7 9 9 9 8 7 6 6 5 4 4 4 3
6 5 5 3 5 6 9 6 4 5 6 9 11 11 13 7 11 12 14 15 16 17 18 18 18 18 17 16 14 14 13 12 10 9 9 9 9 9 9 8 8 7 7 6 4 4 5 4 3
3 6 10 6 7 7 7 11 10 12 4 4 7 4 7 6 5 10 13 15 16 17 17 18 17 17 16 15 14 13 13 12 11 10 10 9 10 9 9 8 7 7 6 6 5 5 3 4 3
Wind_Direction
292 285 284 253 240 230 245 239 248 202 218 58 12 315 54 44 357 13 127 120 135 119 113 78 64 66 63 56 53 55 54 52 55 49 45 42 40 33 27 29 26 27 24 26 27 24 33 28 13
299 293 234 259 244 238 237 234 188 219 78 123 120 142 181 88 71 118 142 142 136 122 115 86 75 72 71 68 66 64 57 50 53 55 54 50 53 43 38 36 30 28 24 27 25 19 21 18 9
263 261 260 233 241 245 261 346 226 103 145 176 134 348 18 91 116 128 101 140 138 124 104 87 78 78 79 78 72 66 61 57 54 57 54 51 51 50 48 45 37 31 24 16 16 14 20 15 357
258 200 248 246 249 242 263 166 103 154 160 208 205 153 98 7 138 122 135 140 129 121 108 89 78 74 77 79 80 76 66 60 53 47 48 52 52 52 48 48 47 40 36 31 29 28 23 14 21
222 257 240 245 245 258 271 327 193 193 160 172 189 141 94 122 110 131 139 143 139 125 119 98 77 76 75 76 78 79 77 71 61 55 45 44 48 49 47 43 44 41 36 32 30 33 30 24 52
228 230 239 237 253 248 174 244 209 207 167 138 191 149 113 132 148 143 148 147 141 131 118 110 88 78 76 75 76 76 73 70 64 56 54 51 41 47 48 43 41 40 38 33 38 38 46 59 54
258 224 244 265 272 277 220 195 226 221 191 195 360 184 109 167 151 152 148 143 146 140 139 135 123 105 87 76 72 71 71 67 59 52 51 51 44 44 45 42 40 44 41 41 49 56 65 58 55
271 276 257 250 268 266 68 182 330 252 190 59 317 187 168 174 153 151 152 150 148 146 147 138 135 121 109 99 77 75 73 73 69 61 54 44 65 50 45 41 42 46 49 53 61 62 64 67 62
257 250 250 255 281 273 65 219 128 3 172 194 150 334 54 142 155 158 161 160 154 152 151 149 143 129 118 109 111 110 89 81 82 92 56 95 56 45 51 47 49 50 56 69 70 70 79 89 69
219 241 255 318 215 241 212 241 166 239 201 210 187 124 138 152 167 169 174 171 171 164 162 154 151 134 127 117 117 100 89 64 59 56 51 58 65 59 59 73 67 68 80 75 70 68 68 62 68
216 244 283 168 70 316 243 249 178 232 237 230 215 167 161 168 178 180 181 177 171 163 151 153 143 135 126 116 121 116 109 108 85 61 42 58 55 49 63 76 80 77 52 67 65 66 60 61 70
245 247 261 121 147 92 286 308 231 225 257 344 12 160 172 180 183 185 182 173 166 167 154 152 145 145 137 144 126 117 103 92 87 63 46 65 65 58 61 68 84 69 68 74 72 70 75 76 75
245 251 216 197 203 209 208 234 275 242 251 302 223 162 182 188 187 187 180 171 171 171 158 159 157 147 144 132 125 109 114 93 89 78 51 37 65 68 80 77 74 77 76 78 79 79 80 76 73
11 263 258 231 214 238 240 224 264 245 208 208 177 185 191 195 189 183 182 179 179 169 165 159 159 150 145 134 132 121 110 108 86 68 55 56 60 66 78 84 81 75 71 67 69 77 82 82 82
272 262 231 228 206 236 245 245 224 241 177 202 202 190 195 201 193 193 185 183 182 175 162 167 158 151 146 139 136 120 108 106 97 93 65 60 49 70 89 93 86 83 87 91 89 89 90 90 86
236 246 255 136 170 188 209 257 248 200 190 211 203 196 195 200 197 196 188 186 180 174 170 162 160 160 154 142 141 129 121 111 102 94 82 68 63 67 96 101 95 93 86 87 87 86 87 84 82
212 259 228 249 204 175 198 263 176 173 213 225 209 206 197 197 197 197 191 188 180 175 173 169 169 162 154 144 135 126 125 117 109 99 91 80 74 74 96 98 99 96 94 87 90 85 92 95 94
237 231 260 251 176 218 225 250 253 200 223 233 221 213 205 205 200 195 192 190 184 178 172 169 169 160 156 151 142 137 130 119 114 101 92 93 84 92 107 106 111 111 103 96 90 94 88 99 101
275 279 268 275 112 257 240 253 258 248 211 228 228 219 214 210 198 197 191 188 184 183 178 176 171 168 164 164 160 155 151 142 128 110 114 105 99 102 118 121 123 118 109 111 113 113 110 105 114
254 257 261 270 163 223 275 270 265 256 242 225 228 221 216 208 203 193 187 188 189 185 183 178 178 172 175 172 160 160 151 159 138 131 120 108 111 115 128 135 133 128 128 125 124 129 120 103 301
242 251 259 265 277 236 276 273 256 247 236 235 225 230 215 207 200 192 188 190 187 188 184 182 179 176 177 170 149 151 143 139 157 155 140 132 126 128 126 130 134 136 138 138 136 143 189 141 116
253 259 258 264 255 263 170 291 286 295 235 226 226 223 220 205 201 195 189 191 188 186 184 181 178 177 177 167 168 171 173 169 171 165 140 142 140 132 126 124 132 134 133 134 133 138 134 210 133
282 10 252 263 258 277 253 262 284 259 256 237 227 225 220 211 202 193 191 189 187 184 181 179 176 178 176 173 179 182 181 174 150 147 149 151 151 148 137 133 128 122 114 115 122 125 118 107 151
101 141 192 233 259 252 240 240 275 254 253 247 249 227 220 213 202 197 190 184 186 179 179 177 176 179 176 179 186 188 185 160 162 163 164 163 162 158 154 144 127 118 113 112 103 101 95 80 69
202 190 225 232 210 251 358 244 247 302 293 255 266 278 211 209 201 194 188 184 182 179 178 177 178 179 178 182 186 188 187 177 178 168 172 165 167 168 164 154 141 129 117 115 116 102 93 76 77
194 220 239 255 245 286 114 240 252 253 286 277 274 279 267 206 203 199 192 184 181 177 178 178 178 178 179 180 184 185 188 178 183 178 177 173 171 168 157 155 140 133 135 133 126 113 97 98 90
158 215 15 310 146 267 245 252 254 248 262 276 273 271 255 240 210 201 195 187 181 178 180 178 175 179 180 179 180 181 182 178 180 174 174 176 168 155 162 156 153 151 149 146 140 122 122 116 108
286 346 169 210 247 250 246 260 255 279 278 21 16 309 256 235 213 199 195 186 184 179 176 177 179 181 177 178 178 176 177 180 177 175 174 174 167 160 164 164 162 162 158 154 149 136 133 141 129
169 210 221 293 253 266 285 265 11 345 35 345 339 328 327 270 228 205 195 185 184 174 176 178 178 179 177 180 177 174 175 178 178 177 178 174 164 169 170 170 168 171 169 166 166 155 147 163 154
339 240 193 224 206 240 290 257 291 291 322 294 296 296 356 327 239 211 195 184 180 178 177 179 176 179 179 178 175 175 172 174 178 178 177 171 170 169 171 170 174 177 176 172 176 170 169 187 185